AMC-3

Last updated on Fri Dec 19 2025 00:02:48 GMT+0000 (Coordinated Universal Time)

1 24936U 97050A 25352.55533594 -.00000244 00000+0 00000+0 0 9990 2 24936 7.7037 66.1487 0002959 205.2207 303.9599 1.00271647 50624
UTC large
Height (km)
Speed (km/s)
/
Latitude / Longitude
Inclination (degrees)
Orbital Period (minutes)
Azimuth
Elevation
Range (km)
Doppler Factor

Next 0 passes for location: London (51.5072 / 0.1276)

Sorry there are no passes over London.